Year,Month,Day,Hour,Minute,Value (Times are PST for temperature in C)
2010,10,25,10,30,9.90
2010,10,25,10,31,9.90
2010,10,25,10,32,9.90
2010,10,25,10,33,9.90
2010,10,25,10,34,9.90
2010,10,25,10,35,9.90
2010,10,25,10,36,9.90
2010,10,25,10,37,9.90
2010,10,25,10,38,9.90
2010,10,25,10,39,9.90
2010,10,25,10,40,9.90
2010,10,25,10,41,9.90
2010,10,25,10,42,9.90
2010,10,25,10,43,9.90
2010,10,25,10,44,9.90
2010,10,25,10,45,9.90
2010,10,25,10,46,9.90
2010,10,25,10,47,9.90
2010,10,25,10,48,9.90
2010,10,25,10,49,9.90
2010,10,25,10,50,9.90
2010,10,25,10,51,9.90
2010,10,25,10,52,9.90
2010,10,25,10,53,9.90
2010,10,25,10,54,9.90
2010,10,25,10,55,9.90
2010,10,25,10,56,9.90
2010,10,25,10,57,9.90
2010,10,25,10,58,9.90
2010,10,25,10,59,9.90
2010,10,25,11,00,9.90
2010,10,25,11,01,9.90
2010,10,25,11,02,9.90
2010,10,25,11,03,9.90
2010,10,25,11,04,9.90
2010,10,25,11,05,10.00
2010,10,25,11,06,10.10
2010,10,25,11,07,10.10
2010,10,25,11,08,10.10
2010,10,25,11,09,10.10
2010,10,25,11,10,10.10
2010,10,25,11,11,10.10
2010,10,25,11,12,10.10
2010,10,25,11,13,10.10
2010,10,25,11,14,10.10
2010,10,25,11,15,10.20
2010,10,25,11,16,10.20
2010,10,25,11,17,10.20
2010,10,25,11,18,10.30
2010,10,25,11,19,10.30
2010,10,25,11,20,10.30
2010,10,25,11,21,10.40
2010,10,25,11,22,10.40
2010,10,25,11,23,10.40
2010,10,25,11,24,10.40
2010,10,25,11,25,10.50
2010,10,25,11,26,10.60
2010,10,25,11,27,10.60
2010,10,25,11,28,10.60
2010,10,25,11,29,10.60
2010,10,25,11,30,10.60
2010,10,25,11,31,10.60
2010,10,25,11,32,10.70
2010,10,25,11,33,10.70
2010,10,25,11,34,10.70
2010,10,25,11,35,10.70
2010,10,25,11,36,10.80
2010,10,25,11,37,10.70
2010,10,25,11,38,10.70
2010,10,25,11,39,10.70
2010,10,25,11,40,10.70
2010,10,25,11,41,10.70
2010,10,25,11,42,10.70
2010,10,25,11,43,10.70
2010,10,25,11,44,10.70
2010,10,25,11,45,10.70
2010,10,25,11,46,10.70
2010,10,25,11,47,10.70
2010,10,25,11,48,10.70
2010,10,25,11,49,10.70
2010,10,25,11,50,10.70
2010,10,25,11,51,10.70
2010,10,25,11,52,10.70
2010,10,25,11,53,10.70
2010,10,25,11,54,10.70
2010,10,25,11,55,10.70
2010,10,25,11,56,10.70
2010,10,25,11,57,10.70
2010,10,25,11,58,10.70
2010,10,25,11,59,10.70
2010,10,25,12,00,10.80
2010,10,25,12,01,10.80
2010,10,25,12,02,10.80
2010,10,25,12,03,10.80
2010,10,25,12,04,10.80
2010,10,25,12,05,10.80
2010,10,25,12,06,10.90
2010,10,25,12,07,10.90
2010,10,25,12,08,10.90
2010,10,25,12,09,10.90
2010,10,25,12,10,10.90
2010,10,25,12,11,10.90
2010,10,25,12,12,10.90
2010,10,25,12,13,10.90
2010,10,25,12,14,10.90
2010,10,25,12,15,10.90
2010,10,25,12,16,10.90
2010,10,25,12,17,10.90
2010,10,25,12,18,10.90
2010,10,25,12,19,10.90
2010,10,25,12,20,10.90
2010,10,25,12,21,10.90
2010,10,25,12,22,10.90
2010,10,25,12,23,10.90
2010,10,25,12,24,10.90
2010,10,25,12,25,10.90
2010,10,25,12,26,10.90
2010,10,25,12,27,10.90
2010,10,25,12,28,10.90
2010,10,25,12,29,10.90
2010,10,25,12,30,11.10
2010,10,25,12,31,11.10
2010,10,25,12,32,11.20
2010,10,25,12,33,11.20
2010,10,25,12,34,11.30
2010,10,25,12,35,11.30
2010,10,25,12,36,11.30
2010,10,25,12,37,11.30
2010,10,25,12,38,11.40
2010,10,25,12,39,11.40
2010,10,25,12,40,11.40
2010,10,25,12,41,11.50
2010,10,25,12,42,11.60
2010,10,25,12,43,11.60
2010,10,25,12,44,11.70
2010,10,25,12,45,11.80
2010,10,25,12,46,11.80
2010,10,25,12,47,11.80
2010,10,25,12,48,11.80
2010,10,25,12,49,11.90
2010,10,25,12,50,11.90
2010,10,25,12,51,12.00
2010,10,25,12,52,12.00
2010,10,25,12,53,11.90
2010,10,25,12,54,11.90
2010,10,25,12,55,11.90
2010,10,25,12,56,11.90
2010,10,25,12,57,11.90
2010,10,25,12,58,11.90
2010,10,25,12,59,11.80
2010,10,25,13,00,11.80
2010,10,25,13,01,11.80
2010,10,25,13,02,11.80
2010,10,25,13,03,11.70
2010,10,25,13,04,11.70
2010,10,25,13,05,11.70
2010,10,25,13,06,11.60
2010,10,25,13,07,11.60
2010,10,25,13,08,11.70
2010,10,25,13,09,11.70
2010,10,25,13,10,11.70
2010,10,25,13,11,11.60
2010,10,25,13,12,11.60
2010,10,25,13,13,11.60
2010,10,25,13,14,11.70
2010,10,25,13,15,11.70
2010,10,25,13,16,11.70
2010,10,25,13,17,11.70
2010,10,25,13,18,11.70
2010,10,25,13,19,11.80
2010,10,25,13,20,11.80
2010,10,25,13,21,11.80
2010,10,25,13,22,11.80
2010,10,25,13,23,11.90
2010,10,25,13,24,11.90
2010,10,25,13,25,11.90
2010,10,25,13,26,11.90
2010,10,25,13,27,11.90
2010,10,25,13,28,11.90
2010,10,25,13,29,11.90
2010,10,25,13,30,11.90
2010,10,25,13,31,12.00
2010,10,25,13,32,12.00
2010,10,25,13,33,12.00
2010,10,25,13,34,12.00
2010,10,25,13,35,12.10
2010,10,25,13,36,12.10
2010,10,25,13,37,12.10
2010,10,25,13,38,12.10
2010,10,25,13,39,12.10
2010,10,25,13,40,12.10
2010,10,25,13,41,12.20
2010,10,25,13,42,12.20
2010,10,25,13,43,12.20
2010,10,25,13,44,12.20
2010,10,25,13,45,12.20
2010,10,25,13,46,12.20
2010,10,25,13,47,12.20
2010,10,25,13,48,12.20
2010,10,25,13,49,12.30
2010,10,25,13,50,12.30
2010,10,25,13,51,12.30
2010,10,25,13,52,12.30
2010,10,25,13,53,12.30
2010,10,25,13,54,12.30
2010,10,25,13,55,12.30
2010,10,25,13,56,12.20
2010,10,25,13,57,12.20
2010,10,25,13,58,12.20
2010,10,25,13,59,12.10
2010,10,25,14,00,12.10
2010,10,25,14,01,12.10
2010,10,25,14,02,12.00
2010,10,25,14,03,12.00
2010,10,25,14,04,12.00
2010,10,25,14,05,12.00
2010,10,25,14,06,11.90
2010,10,25,14,07,11.90
2010,10,25,14,08,11.90
2010,10,25,14,09,11.90
2010,10,25,14,10,11.90
2010,10,25,14,11,11.90
2010,10,25,14,12,11.80
2010,10,25,14,13,11.80
2010,10,25,14,14,11.80
2010,10,25,14,15,11.80
2010,10,25,14,16,11.80
2010,10,25,14,17,11.80
2010,10,25,14,18,11.80
2010,10,25,14,19,11.80
2010,10,25,14,20,11.80
2010,10,25,14,21,11.70
2010,10,25,14,22,11.70
2010,10,25,14,23,11.70
2010,10,25,14,24,11.70
2010,10,25,14,25,11.60
2010,10,25,14,26,11.60
2010,10,25,14,27,11.60
2010,10,25,14,28,11.60
2010,10,25,14,29,11.60
2010,10,25,14,30,11.60
2010,10,25,14,31,11.60
2010,10,25,14,32,11.60
2010,10,25,14,33,11.60
2010,10,25,14,34,11.60
2010,10,25,14,35,11.60
2010,10,25,14,36,11.60
2010,10,25,14,37,11.50
2010,10,25,14,38,11.50
2010,10,25,14,39,11.60
2010,10,25,14,40,11.60
2010,10,25,14,41,11.60
2010,10,25,14,42,11.60
2010,10,25,14,43,11.50
2010,10,25,14,44,11.40
2010,10,25,14,45,11.40
2010,10,25,14,46,11.40
2010,10,25,14,47,11.40
2010,10,25,14,48,11.40
2010,10,25,14,49,11.40
2010,10,25,14,50,11.30
2010,10,25,14,51,11.30
2010,10,25,14,52,11.30
2010,10,25,14,53,11.30
2010,10,25,14,54,11.20
2010,10,25,14,55,11.20
2010,10,25,14,56,11.20
2010,10,25,14,57,11.20
2010,10,25,14,58,11.20
2010,10,25,14,59,11.10
2010,10,25,15,00,11.10
2010,10,25,15,01,11.10
2010,10,25,15,02,11.10
2010,10,25,15,03,11.10
2010,10,25,15,04,11.10
2010,10,25,15,05,11.10
2010,10,25,15,06,11.00
2010,10,25,15,07,10.90
2010,10,25,15,08,10.90
2010,10,25,15,09,10.90
2010,10,25,15,10,10.90
2010,10,25,15,11,10.90
2010,10,25,15,12,10.90
2010,10,25,15,13,10.90
2010,10,25,15,14,10.90
2010,10,25,15,15,10.90
2010,10,25,15,16,10.80
2010,10,25,15,17,10.80
2010,10,25,15,18,10.80
2010,10,25,15,19,10.80
2010,10,25,15,20,10.70
2010,10,25,15,21,10.70
2010,10,25,15,22,10.60
2010,10,25,15,23,10.60
2010,10,25,15,24,10.60
2010,10,25,15,25,10.60
2010,10,25,15,26,10.60
2010,10,25,15,27,10.60
2010,10,25,15,28,10.60
2010,10,25,15,29,10.60
2010,10,25,15,30,10.60
2010,10,25,15,31,10.60
2010,10,25,15,32,10.60
2010,10,25,15,33,10.60
2010,10,25,15,34,10.50
2010,10,25,15,35,10.40
2010,10,25,15,36,10.40
2010,10,25,15,37,10.40
2010,10,25,15,38,10.40
2010,10,25,15,39,10.40
2010,10,25,15,40,10.40
2010,10,25,15,41,10.40
2010,10,25,15,42,10.40
2010,10,25,15,43,10.40
2010,10,25,15,44,10.40
2010,10,25,15,45,10.40
2010,10,25,15,46,10.40
2010,10,25,15,47,10.40
2010,10,25,15,48,10.40
2010,10,25,15,49,10.40
2010,10,25,15,50,10.40
2010,10,25,15,51,10.40
2010,10,25,15,52,10.40
2010,10,25,15,53,10.40
2010,10,25,15,54,10.40
2010,10,25,15,55,10.40
2010,10,25,15,56,10.40
2010,10,25,15,57,10.40
2010,10,25,15,58,10.40
2010,10,25,15,59,10.40
2010,10,25,16,00,10.40
2010,10,25,16,01,10.40
2010,10,25,16,02,10.40
2010,10,25,16,53,10.10
2010,10,25,16,54,10.10
2010,10,25,16,55,10.10
2010,10,25,16,56,10.10
2010,10,25,16,57,10.20
2010,10,25,16,58,10.30
2010,10,25,16,59,10.40
2010,10,25,17,00,10.40
2010,10,25,17,01,10.40
2010,10,25,17,02,10.40
2010,10,25,17,03,10.40
2010,10,25,17,04,10.40
2010,10,25,17,05,10.40
2010,10,25,17,06,10.30
2010,10,25,17,07,10.30
2010,10,25,17,08,10.30
2010,10,25,17,09,10.30
2010,10,25,17,10,10.30
2010,10,25,17,11,10.30
2010,10,25,17,12,10.10
2010,10,25,17,13,10.10
2010,10,25,17,14,10.10
2010,10,25,17,15,10.10
2010,10,25,17,16,10.10
2010,10,25,17,17,10.10
2010,10,25,17,18,10.10
2010,10,25,17,19,10.10
2010,10,25,17,20,10.10
2010,10,25,17,21,10.00
2010,10,25,17,22,9.90
2010,10,25,17,23,9.90
2010,10,25,17,24,9.90
2010,10,25,17,25,9.90
2010,10,25,17,26,9.90
2010,10,25,17,27,9.80
2010,10,25,17,28,9.80
2010,10,25,17,29,9.80
2010,10,25,17,30,9.70
2010,10,25,17,31,9.70
2010,10,25,17,32,9.70
2010,10,25,17,33,9.70
2010,10,25,17,34,9.70
2010,10,25,17,35,9.60
2010,10,25,17,36,9.60
2010,10,25,17,37,9.60
2010,10,25,17,38,9.60
2010,10,25,17,39,9.60
2010,10,25,17,40,9.50
2010,10,25,17,41,9.50
2010,10,25,17,42,9.50
2010,10,25,17,43,9.50
2010,10,25,17,44,9.50
2010,10,25,17,45,9.50
2010,10,25,17,46,9.50
2010,10,25,17,47,9.50
2010,10,25,17,48,9.50
2010,10,25,17,49,9.50
2010,10,25,17,50,9.50
2010,10,25,17,51,9.50
2010,10,25,17,52,9.50
2010,10,25,17,53,9.50
